[[{"header":{"parameterUnit":"m.s-1","parameterCategory":2,"la1":30.2991,"la2":30.254,"lo1":-89.0895,"lo2":-89.0444,"dy":0.0017,"dx":0.0017,"nx":28,"ny":28,"refTime":"2025-01-10T03:00:00:Z","depth":"0","parameterNumber":2,"parameterNumberName":"U-component_of_CURRENTS"},"data":[0,0,0,0,0,0,0,0,0,0,0,0,0,0,0,0,0,0,0,0,0,0,0,0,0,0,0,0,0,0,0,0,0,0,0,0,0,0,0,0,0,0,0,0,0,0,0,0,0,0,0,0,0,0,0,0,0,0,0.3033,0.3033,0,0.3045,0.3045,0.3045,0.3025,0.3024,0.3024,0.3023,0.3002,0.3001,0.3001,0,0,0,0,0,0,0,0,0,0,0,0,0,0.3015,0.3015,0.3032,0.3033,0.3033,0.3045,0.3045,0.3045,0.3025,0.3024,0.3024,0.3023,0.3002,0.3002,0.3001,0,0,0,0,0,0,0,0,0,0,0,0,0,0.3022,0.3015,0.3032,0.3026,0.3026,0.3045,0.3045,0.3045,0.3025,0.3024,0.3023,0.3023,0.3002,0.3002,0.3001,0.3015,0,0,0.3001,0.3001,0,0,0,0,0,0,0,0,0.3022,0.3023,0.3027,0.3027,0.3026,0.3035,0.3031,0.3034,0.3025,0.3023,0.3023,0.3022,0.3012,0.301,0.3012,0.3014,0.3013,0.3001,0.3001,0.3001,0.3001,0,0,0,0,0,0,0,0.3021,0.3022,0.3035,0.3027,0.3027,0.3031,0.3031,0.3032,0.3019,0.3023,0.3022,0.3027,0.3011,0.3012,0.3011,0.3013,0.3001,0.3001,0.3001,0.3,0.3059,0.3061,0,0,0,0,0,0,0.3024,0.3022,0.3035,0.3036,0.3025,0.3032,0.3032,0.3031,0.3019,0.3018,0.3028,0.3027,0.3013,0.3011,0.301,0.3051,0.3001,0.3,0.3,0.3058,0.306,0.3061,0,0,0,0,0,0,0.3023,0.3025,0.3034,0.3031,0.3033,0.3033,0.3032,0.3032,0.3036,0.3024,0.3021,0.3034,0.3012,0.301,0.3023,0.3049,0.3,0.3,0.3056,0.3058,0.306,0.3116,0,0,0,0,0,0,0.3023,0.3024,0.3026,0.3031,0.3033,0.3051,0.3033,0.3032,0.3041,0.3039,0.3028,0.3025,0.3011,0.3024,0.3023,0.3048,0.3,0.3053,0.3057,0.306,0.3113,0.3121,0.3127,0,0,0,0,0,0.3022,0.3026,0.3026,0.3028,0.3035,0.3052,0.3053,0.305,0.3043,0.305,0.3047,0.3026,0.3043,0.3025,0.3024,0.3049,0.3052,0.3056,0.3059,0.3109,0.3119,0.3127,0,0,0,0,0,0,0.302,0.3025,0.3024,0.303,0.3044,0.3049,0.3056,0.3057,0.3061,0.3059,0.3043,0.3041,0.3065,0.3052,0.3033,0.3078,0.3046,0.305,0.3084,0.3093,0.3101,0.3115,0.3,0,0,0,0,0,0.3022,0.3024,0.3036,0.3042,0.3049,0.3055,0.3062,0.3064,0.3069,0.307,0.3064,0.3066,0.3081,0.3082,0.3088,0.3108,0.3111,0.3126,0.3134,0.314,0.3153,0.3186,0.3198,0.3074,0.3074,0.3074,0,0,0.3021,0.3027,0.3027,0.3042,0.3049,0.307,0.3057,0.3073,0.3095,0.3068,0.3089,0.3092,0.3094,0.3121,0.313,0.311,0.3178,0.3145,0.315,0.316,0.3192,0.3204,0.3214,0.3076,0.3076,0.3075,0,0,0.3028,0.303,0.3037,0.3052,0.3072,0.3083,0.3091,0.3104,0.3113,0.3136,0.3133,0.3155,0.3159,0.3176,0.3184,0.3239,0.322,0.3237,0.328,0.3313,0.3323,0.3333,0.3352,0.3362,0.3236,0.3236,0.3236,0,0.3031,0.3038,0.3044,0.3062,0.3077,0.3092,0.3112,0.3133,0.315,0.3166,0.3149,0.3194,0.3192,0.3244,0.3264,0.3256,0.3264,0.3242,0.3323,0.3332,0.334,0.3357,0.3368,0.3239,0.3239,0.3238,0.3238,0,0.3043,0.3055,0.3064,0.309,0.3112,0.3131,0.3163,0.3188,0.3199,0.3218,0.3265,0.3273,0.3298,0.3306,0.3301,0.3367,0.335,0.333,0.3297,0.3356,0.337,0.3381,0.3244,0.3242,0.3242,0.3241,0,0,0.3032,0.3064,0.3068,0.3081,0.3126,0.3142,0.3195,0.3241,0.3282,0.3301,0.3351,0.3385,0.3389,0.3401,0.3402,0.3433,0.3498,0.3409,0.3409,0.3424,0.3565,0.3531,0.3538,0.349,0.3492,0.3493,0.355,0,0.3039,0.3065,0.3089,0.3125,0.314,0.3181,0.323,0.3279,0.3322,0.3377,0.3404,0.3452,0.3426,0.3448,0.3476,0.3503,0.3528,0.3484,0.3509,0.351,0.347,0.355,0.3471,0.3513,0.356,0.3561,0.3563,0,0.3039,0.3059,0.3085,0.3136,0.3149,0.318,0.326,0.3311,0.3402,0.3438,0.3493,0.3517,0.3583,0.3545,0.3613,0.3585,0.3582,0.359,0.3591,0.3549,0.3496,0.3463,0.353,0.3487,0.3578,0.3577,0.3576,0,0.3008,0.3055,0.307,0.3087,0.3153,0.318,0.3228,0.3321,0.3384,0.3487,0.3543,0.3605,0.3654,0.3669,0.3686,0.3656,0.3752,0.3706,0.3669,0.3665,0.3599,0.3586,0.3625,0.3747,0.3747,0.3747,0.3747,0,0.2996,0.3009,0.3054,0.3061,0.3105,0.3161,0.3232,0.33,0.3414,0.3488,0.3569,0.3638,0.3691,0.3744,0.3728,0.3744,0.3783,0.3702,0.3691,0.3616,0.3604,0.3563,0.3546,0.3749,0.3748,0.3748,0.3748,0,0.2954,0.298,0.3003,0.3063,0.3085,0.3118,0.3227,0.3283,0.3406,0.351,0.3548,0.3691,0.3765,0.3802,0.3849,0.3809,0.3733,0.3801,0.3707,0.3684,0.3587,0.3575,0.345,0.3336,0.3773,0.3772,0.3772,0,0.2932,0.2935,0.2989,0.3001,0.3025,0.3085,0.3128,0.3259,0.3327,0.3524,0.3565,0.3703,0.3783,0.3868,0.384,0.3834,0.372,0.373,0.3657,0.3599,0.3578,0.342,0.3321,0.359,0.3589,0.3587,0.3586,0,0.2893,0.2909,0.2925,0.2953,0.2984,0.303,0.3102,0.3157,0.3307,0.3413,0.3547,0.3644,0.3773,0.3763,0.3786,0.3761,0.3593,0.3699,0.3671,0.3479,0.3279,0.3157,0.353,0.3574,0.3575,0.3576,0.3576,0.3577,0.286,0.2857,0.2874,0.2893,0.2922,0.2942,0.2948,0.3043,0.3137,0.3263,0.3424,0.3536,0.3662,0.3706,0.3653,0.3569,0.35,0.3476,0.348,0.3333,0.3184,0.3527,0.3535,0.3536,0.3537,0.3538,0.3538,0,0.2803,0.2798,0.2812,0.2812,0.2795,0.285,0.2898,0.2889,0.2935,0.3123,0.3234,0.3381,0.3427,0.3489,0.3497,0.3394,0.3198,0.3306,0.3091,0.301,0.3368,0.3324,0.3247,0.3247,0.3247,0.3247,0.3247,0.3247,0.277,0.274,0.2738,0.2677,0.2672,0.2617,0.2615,0.2635,0.2734,0.2834,0.2939,0.3077,0.3364,0.3501,0.3435,0.3325,0.3075,0.2944,0.2889,0.3212,0.3227,0.3242,0.3197,0.3095,0.3095,0.2398,0.2394,0.239]},{"header":{"parameterUnit":"m.s-1","parameterCategory":2,"la1":30.2991,"la2":30.254,"lo1":-89.0895,"lo2":-89.0444,"dy":0.0017,"dx":0.0017,"nx":28,"ny":28,"refTime":"2025-01-10T03:00:00:Z","depth":"0","parameterNumber":3,"parameterNumberName":"V-component_of_CURRENTS"},"data":[0,0,0,0,0,0,0,0,0,0,0,0,0,0,0,0,0,0,0,0,0,0,0,0,0,0,0,0,0,0,0,0,0,0,0,0,0,0,0,0,0,0,0,0,0,0,0,0,0,0,0,0,0,0,0,0,0,0,0.0132,0.0131,0,0.0089,0.0088,0.0087,0.0058,0.0058,0.0057,0.0057,0.001,0.0009,0.0008,0,0,0,0,0,0,0,0,0,0,0,0,0,0.0138,0.0139,0.0132,0.0131,0.0131,0.0089,0.0088,0.0087,0.0058,0.0058,0.0057,0.0057,0.001,0.0009,0.0008,0,0,0,0,0,0,0,0,0,0,0,0,0,0.0119,0.0139,0.0132,0.0112,0.0109,0.0089,0.0088,0.0087,0.0058,0.0058,0.0057,0.0057,0.0011,0.0009,0.0008,0.0002,0,0,0.0002,0.0002,0,0,0,0,0,0,0,0,0.012,0.0119,0.0115,0.0113,0.011,0.0079,0.0073,0.0059,0.0058,0.0077,0.0057,0.0057,0.0033,0.003,0.0021,-0.0,-0.0002,0.0002,0.0001,0.0001,0.0,0,0,0,0,0,0,0,0.0121,0.012,0.0114,0.0115,0.0112,0.0087,0.0085,0.007,0.0056,0.0075,0.0073,0.0069,0.0032,0.0023,0.002,-0.0003,0.0002,0.0001,-0.0,-0.0001,-0.0032,-0.0032,0,0,0,0,0,0,0.0131,0.0122,0.0115,0.0113,0.0116,0.0088,0.0085,0.0089,0.0056,0.0051,0.007,0.0068,0.0026,0.0022,0.0018,0.0025,0.0001,-0.0001,-0.0002,-0.0032,-0.0032,-0.0032,0,0,0,0,0,0,0.0132,0.0132,0.0117,0.0116,0.0113,0.0088,0.0093,0.0088,0.0082,0.0052,0.0047,0.0069,0.0026,0.002,0.0011,0.0022,-0.0002,-0.0003,-0.0032,-0.0032,-0.0032,0.0028,0,0,0,0,0,0,0.0132,0.0132,0.0138,0.0117,0.0113,0.0116,0.0093,0.0087,0.0081,0.0078,0.0051,0.0046,0.0025,0.0014,0.0009,0.0019,-0.0005,-0.0032,-0.0032,-0.0032,0.0026,0.003,0.0034,0,0,0,0,0,0.0133,0.0148,0.0139,0.0138,0.0123,0.0116,0.0113,0.0093,0.0081,0.0085,0.0064,0.0047,0.0012,0.0013,0.0007,0.0017,-0.0033,-0.0032,-0.0032,0.0024,0.0029,0.0034,0,0,0,0,0,0,0.0152,0.0145,0.0136,0.0147,0.0136,0.0112,0.0113,0.0098,0.0084,0.008,0.0051,0.0045,0.0038,0.0019,0.002,0.0007,-0.0014,-0.0015,0.003,0.0035,0.0039,0.0059,-0.0006,0,0,0,0,0,0.016,0.017,0.0155,0.0163,0.016,0.0137,0.0131,0.0118,0.0102,0.0095,0.0075,0.0052,0.0035,0.0029,0.0009,0.0007,-0.0021,0.0008,0.0012,0.0016,0.0027,-0.0008,-0.0006,-0.003,-0.003,-0.003,0,0,0.0168,0.0166,0.017,0.0168,0.0156,0.0165,0.0133,0.013,0.0138,0.0092,0.0096,0.0066,0.0036,0.0031,0.0027,0.0019,0.0006,0.0016,0.002,0.003,-0.0008,-0.0005,-0.0003,-0.003,-0.003,-0.003,0,0,0.0195,0.0189,0.0208,0.0206,0.0197,0.0185,0.0188,0.0168,0.0161,0.0156,0.0125,0.0104,0.008,0.0062,0.0049,0.0065,0.0027,0.0056,0.0098,0.0063,0.0065,0.0066,0.003,0.0027,0.0061,0.0061,0.0061,0,0.0205,0.023,0.0211,0.023,0.0238,0.02,0.0225,0.0211,0.019,0.0191,0.0166,0.0125,0.0096,0.0093,0.0095,0.0076,0.0048,0.0084,0.0069,0.007,0.007,0.0033,0.0029,0.0064,0.0064,0.0063,0.0063,0,0.0249,0.0268,0.0278,0.0295,0.0299,0.0311,0.0295,0.0292,0.0272,0.0256,0.0241,0.0192,0.0172,0.0152,0.0129,0.0122,0.0098,0.0076,0.006,0.0077,0.0035,0.0031,0.0068,0.0067,0.0066,0.0066,0,0,0.0281,0.0307,0.0312,0.0337,0.0337,0.0349,0.036,0.0365,0.0383,0.0336,0.035,0.0298,0.0264,0.0247,0.0206,0.0172,0.0142,0.0132,0.0129,0.0103,0.0064,0.0043,0.0036,0.0117,0.0117,0.0117,0.0033,0,0.0323,0.0381,0.038,0.0433,0.0463,0.0442,0.0462,0.0458,0.0443,0.0443,0.0377,0.0369,0.0303,0.0294,0.0249,0.0175,0.0134,0.0167,0.0046,0.0043,0.0028,0.0031,0.005,-0.0023,0.0028,0.0027,0.0027,0,0.0372,0.0409,0.0471,0.0518,0.053,0.055,0.0583,0.06,0.0581,0.0569,0.0534,0.048,0.0426,0.0364,0.024,0.0264,0.0173,0.0103,0.0097,0.0058,0.0014,-0.0032,-0.0033,-0.022,0.0019,0.002,0.002,0,0.0418,0.0474,0.0531,0.0546,0.0587,0.061,0.0631,0.0636,0.0675,0.065,0.0666,0.0576,0.0546,0.0418,0.0263,0.0254,0.0118,0.0086,-0.0022,-0.0025,-0.0042,-0.0046,-0.0231,-0.0005,-0.0005,-0.0005,-0.0005,0,0.0472,0.0517,0.0557,0.0589,0.0667,0.067,0.0747,0.075,0.0777,0.0834,0.0738,0.0756,0.0558,0.0454,0.0298,0.0128,0.0141,-0.0011,-0.0046,-0.0022,-0.0023,-0.0213,-0.0334,-0.0008,-0.0007,-0.0007,-0.0006,0,0.0515,0.0536,0.0611,0.0666,0.0691,0.0749,0.0839,0.0899,0.0903,0.0973,0.0971,0.0894,0.0758,0.0548,0.0339,0.019,-0.0097,-0.0051,-0.0012,-0.004,-0.0308,-0.0426,-0.0648,-0.0736,-0.0177,-0.0178,-0.0179,0,0.0543,0.0583,0.0674,0.0732,0.076,0.0848,0.0919,0.0961,0.104,0.1068,0.1116,0.0999,0.0957,0.0637,0.0334,0.005,-0.0136,-0.0122,-0.0139,-0.032,-0.0477,-0.0553,-0.0617,-0.0146,-0.0146,-0.0146,-0.0147,0,0.0601,0.0628,0.0693,0.0814,0.0899,0.1011,0.1114,0.1198,0.1253,0.1318,0.1374,0.1336,0.1017,0.0744,0.0334,0.0129,-0.0261,-0.0138,-0.0337,-0.0477,-0.0561,-0.0661,-0.0101,-0.015,-0.015,-0.015,-0.0149,-0.0149,0.0644,0.0702,0.0789,0.0909,0.1015,0.1158,0.1274,0.1393,0.1537,0.1652,0.1587,0.1592,0.1145,0.0601,0.0276,-0.029,-0.031,-0.0444,-0.0574,-0.0634,-0.0718,-0.0165,-0.0245,-0.0245,-0.0245,-0.0246,-0.0246,0,0.0702,0.077,0.088,0.1025,0.1157,0.1204,0.1398,0.1534,0.1724,0.1825,0.1883,0.1673,0.1145,0.0581,-0.0193,-0.0621,-0.0776,-0.0872,-0.0983,-0.1029,-0.0541,-0.0536,-0.0667,-0.0667,-0.0667,-0.0667,-0.0667,-0.0667,0.0732,0.0842,0.0901,0.1119,0.1229,0.1428,0.1553,0.1755,0.1897,0.205,0.2064,0.2019,0.1567,0.0147,-0.0804,-0.1034,-0.1356,-0.1447,-0.1607,-0.1285,-0.1254,-0.1225,-0.1248,-0.1527,-0.1528,-0.2007,-0.2012,-0.2016]}],[{"header":{"parameterUnit":"m.s-1","parameterCategory":2,"la1":30.2991,"la2":30.254,"lo1":-89.0895,"lo2":-89.0444,"dy":0.0017,"dx":0.0017,"nx":28,"ny":28,"refTime":"2025-01-10T03:00:00:Z","depth":"2","parameterNumber":2,"parameterNumberName":"U-component_of_CURRENTS"},"data":[0,0,0,0,0,0,0,0,0,0,0,0,0,0,0,0,0,0,0,0,0,0,0,0,0,0,0,0,0,0,0,0,0,0,0,0,0,0,0,0,0,0,0,0,0,0,0,0,0,0,0,0,0,0,0,0,0,0,0.29,0.29,0,0.2907,0.2906,0.2906,0.2889,0.2888,0.2888,0.2888,0.287,0.287,0.287,0,0,0,0,0,0,0,0,0,0,0,0,0,0.2888,0.2888,0.29,0.29,0.2901,0.2907,0.2906,0.2906,0.2889,0.2888,0.2888,0.2888,0.287,0.287,0.287,0,0,0,0,0,0,0,0,0,0,0,0,0,0.2892,0.2888,0.29,0.2894,0.2894,0.2907,0.2906,0.2906,0.2889,0.2888,0.2888,0.2888,0.287,0.287,0.287,0.2878,0,0,0.2869,0.2869,0,0,0,0,0,0,0,0,0.2891,0.2892,0.2895,0.2895,0.2895,0.2899,0.2896,0.2897,0.2889,0.2888,0.2888,0.2887,0.288,0.2878,0.2878,0.2877,0.2877,0.2869,0.2869,0.2869,0.2869,0,0,0,0,0,0,0,0.2891,0.2891,0.29,0.2895,0.2895,0.2897,0.2897,0.2896,0.2884,0.2888,0.2888,0.2892,0.2879,0.2878,0.2877,0.2876,0.2869,0.2869,0.2869,0.2869,0.2925,0.2926,0,0,0,0,0,0,0.2895,0.2891,0.29,0.2901,0.2894,0.2898,0.2897,0.2896,0.2885,0.2884,0.2893,0.2892,0.2879,0.2877,0.2876,0.2919,0.2869,0.2869,0.2869,0.2923,0.2925,0.2927,0,0,0,0,0,0,0.2895,0.2895,0.29,0.2898,0.2899,0.2899,0.2897,0.2896,0.2903,0.2889,0.2887,0.2902,0.2878,0.2877,0.289,0.2917,0.2869,0.2868,0.2921,0.2924,0.2926,0.2984,0,0,0,0,0,0,0.2894,0.2895,0.2898,0.2898,0.29,0.2914,0.2898,0.2897,0.2907,0.2906,0.2896,0.2893,0.2878,0.2891,0.289,0.2916,0.2868,0.2919,0.2922,0.2925,0.298,0.2988,0.2995,0,0,0,0,0,0.2893,0.2898,0.2898,0.29,0.2903,0.2915,0.2916,0.2912,0.2908,0.2915,0.2914,0.2894,0.291,0.2892,0.289,0.2917,0.2918,0.2922,0.2925,0.2976,0.2986,0.2994,0,0,0,0,0,0,0.2895,0.2897,0.2897,0.2902,0.2912,0.2913,0.292,0.2921,0.2925,0.2926,0.291,0.2908,0.2933,0.2919,0.29,0.2945,0.2913,0.2916,0.2952,0.2961,0.2969,0.2983,0.2868,0,0,0,0,0,0.2898,0.2901,0.2908,0.2914,0.292,0.2924,0.293,0.2931,0.2935,0.2936,0.2931,0.2933,0.2947,0.2949,0.2953,0.2973,0.2975,0.2992,0.3,0.3006,0.3018,0.305,0.3062,0.2939,0.2939,0.2939,0,0,0.29,0.2904,0.2904,0.2915,0.2921,0.2938,0.2925,0.2941,0.296,0.2935,0.2956,0.2959,0.296,0.2985,0.2995,0.2976,0.3043,0.301,0.3016,0.3025,0.3055,0.3067,0.3078,0.2942,0.2941,0.2941,0,0,0.2908,0.291,0.2917,0.2929,0.2946,0.2954,0.2963,0.2973,0.2982,0.3004,0.3,0.3023,0.3027,0.3041,0.3048,0.3102,0.3084,0.3102,0.3146,0.3177,0.3187,0.3196,0.3215,0.3225,0.3102,0.3102,0.3102,0,0.2913,0.2918,0.2923,0.2939,0.2952,0.2965,0.2983,0.3001,0.3016,0.3032,0.3018,0.3061,0.3059,0.3107,0.3128,0.3119,0.3128,0.3109,0.3187,0.3196,0.3204,0.3221,0.3231,0.3105,0.3105,0.3104,0.3104,0,0.2925,0.2936,0.2944,0.2967,0.2986,0.3003,0.3031,0.3055,0.3068,0.3085,0.3132,0.3138,0.3163,0.3171,0.3165,0.323,0.3214,0.3194,0.3162,0.322,0.3234,0.3244,0.311,0.3108,0.3108,0.3107,0,0,0.2918,0.2946,0.2949,0.296,0.3,0.3013,0.3063,0.3104,0.3144,0.3163,0.3212,0.3245,0.3253,0.3263,0.3265,0.3295,0.336,0.3274,0.3274,0.3289,0.3425,0.339,0.3396,0.3352,0.3354,0.3356,0.3411,0,0.2926,0.2948,0.2968,0.3,0.3013,0.305,0.3095,0.314,0.3182,0.3235,0.3263,0.331,0.3287,0.3311,0.3339,0.3365,0.339,0.3347,0.337,0.3371,0.3329,0.3408,0.3114,0.3137,0.3421,0.3422,0.3423,0,0.2927,0.2943,0.2966,0.301,0.3022,0.3051,0.3125,0.3172,0.3259,0.3295,0.3351,0.3375,0.3441,0.3405,0.3472,0.3446,0.3444,0.3451,0.3452,0.3407,0.3355,0.3125,0.3144,0.344,0.3438,0.3437,0.3436,0,0.2899,0.294,0.2954,0.2967,0.3026,0.3053,0.3097,0.3185,0.3244,0.3345,0.34,0.3462,0.3512,0.3527,0.3544,0.3516,0.3607,0.3562,0.3524,0.3521,0.327,0.3242,0.3602,0.3602,0.3602,0.3602,0.3602,0,0.2887,0.2899,0.294,0.2946,0.2986,0.3037,0.3105,0.3169,0.3279,0.3349,0.3429,0.3495,0.3548,0.3599,0.3585,0.36,0.3638,0.3557,0.3545,0.3283,0.3256,0.3513,0.3502,0.3604,0.3604,0.3603,0.3603,0,0.285,0.2873,0.2893,0.2948,0.2968,0.3,0.3103,0.3155,0.3275,0.3374,0.3413,0.3548,0.3619,0.3656,0.37,0.3661,0.3668,0.3651,0.3344,0.3296,0.3545,0.3537,0.3622,0.3621,0.3621,0.3621,0.362,0,0.2829,0.2833,0.2882,0.2892,0.2914,0.2972,0.3012,0.3136,0.3199,0.3387,0.3425,0.3559,0.3627,0.3707,0.3647,0.3633,0.3678,0.3353,0.3252,0.3574,0.3554,0.3546,0.3538,0.2932,0.2926,0.2921,0.2917,0,0.2793,0.2809,0.2823,0.2848,0.2876,0.2916,0.2984,0.3034,0.3178,0.3275,0.3398,0.3484,0.3575,0.3443,0.3452,0.3395,0.3336,0.3258,0.3671,0.2991,0.2933,0.291,0.2923,0.2874,0.2878,0.2881,0.2884,0.2886,0.2762,0.2759,0.2774,0.279,0.2816,0.283,0.2832,0.291,0.2992,0.3073,0.3235,0.3245,0.3265,0.3142,0.3031,0.2931,0.3163,0.2988,0.2998,0.3014,0.2943,0.289,0.2808,0.2812,0.2815,0.2818,0.282,0,0.2702,0.2702,0.2713,0.2708,0.2682,0.2742,0.2782,0.2737,0.2758,0.2861,0.2929,0.2687,0.2627,0.2635,0.2422,0.2433,0.2362,0.2323,0.2179,0.2227,0.2268,0.2153,0.1811,0.1807,0.1804,0.1801,0,0,0.2669,0.2635,0.2631,0.2561,0.256,0.2486,0.248,0.2434,0.2452,0.2397,0.2368,0.2539,0.2607,0.2175,0.2115,0.1925,0.2063,0.1855,0.2674,0.2556,0.2593,0.2671,0.2553,0,0,0,0,0]},{"header":{"parameterUnit":"m.s-1","parameterCategory":2,"la1":30.2991,"la2":30.254,"lo1":-89.0895,"lo2":-89.0444,"dy":0.0017,"dx":0.0017,"nx":28,"ny":28,"refTime":"2025-01-10T03:00:00:Z","depth":"2","parameterNumber":3,"parameterNumberName":"V-component_of_CURRENTS"},"data":[0,0,0,0,0,0,0,0,0,0,0,0,0,0,0,0,0,0,0,0,0,0,0,0,0,0,0,0,0,0,0,0,0,0,0,0,0,0,0,0,0,0,0,0,0,0,0,0,0,0,0,0,0,0,0,0,0,0,0.0205,0.0205,0,0.0166,0.0166,0.0165,0.0135,0.0135,0.0135,0.0135,0.0091,0.009,0.0089,0,0,0,0,0,0,0,0,0,0,0,0,0,0.0209,0.0209,0.0205,0.0205,0.0204,0.0166,0.0166,0.0165,0.0135,0.0135,0.0135,0.0135,0.0091,0.009,0.0089,0,0,0,0,0,0,0,0,0,0,0,0,0,0.0192,0.0209,0.0205,0.0186,0.0183,0.0166,0.0166,0.0165,0.0135,0.0135,0.0135,0.0134,0.0091,0.009,0.0088,0.0086,0,0,0.0084,0.0083,0,0,0,0,0,0,0,0,0.0193,0.0192,0.0189,0.0187,0.0185,0.0156,0.0151,0.0138,0.0135,0.0153,0.0135,0.0134,0.0113,0.0109,0.0102,0.0084,0.0082,0.0084,0.0083,0.0082,0.0082,0,0,0,0,0,0,0,0.0194,0.0193,0.0189,0.0188,0.0186,0.0163,0.0161,0.0148,0.0134,0.0151,0.0149,0.0146,0.0111,0.0103,0.0101,0.0081,0.0084,0.0083,0.0082,0.0081,0.0056,0.0056,0,0,0,0,0,0,0.0203,0.0194,0.019,0.0188,0.0189,0.0164,0.0161,0.0165,0.0135,0.013,0.0146,0.0145,0.0106,0.0102,0.0099,0.0107,0.0082,0.0081,0.008,0.0056,0.0056,0.0056,0,0,0,0,0,0,0.0204,0.0204,0.0192,0.019,0.0187,0.0164,0.0169,0.0164,0.0158,0.0131,0.0126,0.0146,0.0106,0.0101,0.0093,0.0104,0.008,0.0079,0.0056,0.0056,0.0056,0.0114,0,0,0,0,0,0,0.0204,0.0204,0.021,0.0191,0.0188,0.0192,0.0169,0.0164,0.0157,0.0155,0.0129,0.0124,0.0105,0.0095,0.0091,0.0102,0.0078,0.0055,0.0056,0.0056,0.0112,0.0117,0.012,0,0,0,0,0,0.0204,0.0219,0.0211,0.021,0.0197,0.0193,0.0189,0.017,0.0158,0.0162,0.0142,0.0125,0.0095,0.0095,0.009,0.01,0.0055,0.0056,0.0056,0.011,0.0116,0.012,0,0,0,0,0,0,0.0222,0.0217,0.0208,0.0219,0.021,0.0188,0.0189,0.0175,0.0162,0.0157,0.013,0.0125,0.0119,0.0101,0.0102,0.0093,0.0071,0.0071,0.0114,0.0119,0.0123,0.0141,0.0077,0,0,0,0,0,0.023,0.024,0.0227,0.0235,0.0232,0.0211,0.0206,0.0193,0.0178,0.0172,0.0153,0.0132,0.0117,0.0112,0.0094,0.0094,0.0066,0.0096,0.01,0.0104,0.0115,0.0079,0.0081,0.0058,0.0058,0.0058,0,0,0.0237,0.0236,0.024,0.0239,0.0228,0.0239,0.0207,0.0204,0.0213,0.017,0.0174,0.0146,0.0119,0.0116,0.0112,0.0104,0.0094,0.0104,0.0108,0.0117,0.008,0.0082,0.0084,0.0058,0.0058,0.0058,0,0,0.0263,0.0258,0.0277,0.0275,0.0268,0.0257,0.026,0.0242,0.0235,0.0232,0.0202,0.0183,0.0162,0.0146,0.0136,0.0152,0.0114,0.0144,0.0185,0.015,0.0152,0.0153,0.0116,0.0114,0.0149,0.0149,0.015,0,0.0273,0.0298,0.028,0.0299,0.0308,0.0272,0.0297,0.0284,0.0266,0.0267,0.0242,0.0206,0.0178,0.0178,0.0181,0.0163,0.0135,0.017,0.0157,0.0157,0.0158,0.0119,0.0115,0.0152,0.0152,0.0152,0.0151,0,0.0316,0.0335,0.0346,0.0363,0.0368,0.0381,0.0367,0.0365,0.0346,0.0331,0.0319,0.0272,0.0254,0.0237,0.0214,0.0208,0.0184,0.0164,0.0147,0.0164,0.0121,0.0117,0.0156,0.0155,0.0154,0.0154,0,0,0.0345,0.0373,0.0378,0.0403,0.0406,0.0419,0.0431,0.0439,0.0457,0.0412,0.0427,0.0379,0.0345,0.033,0.029,0.0257,0.0227,0.0218,0.0215,0.0187,0.0147,0.0125,0.0117,0.0203,0.0203,0.0202,0.0115,0,0.0387,0.0445,0.0445,0.0499,0.053,0.0511,0.0533,0.0531,0.0517,0.0518,0.0455,0.0448,0.0384,0.0375,0.0331,0.0259,0.0218,0.0252,0.0131,0.0127,0.011,0.0112,0.014,0.0065,0.011,0.011,0.0109,0,0.0434,0.0471,0.0534,0.0583,0.0595,0.0616,0.0652,0.067,0.0654,0.0642,0.0609,0.0556,0.0504,0.0443,0.032,0.0345,0.0255,0.0186,0.018,0.0139,0.0096,0.0055,0.0054,0.0101,0.0101,0.0102,0.0103,0,0.0478,0.0535,0.0592,0.0608,0.0651,0.0675,0.0698,0.0705,0.0744,0.0721,0.0735,0.0649,0.0619,0.0492,0.034,0.0332,0.0196,0.0166,0.0057,0.0054,0.0044,0.0041,0.0076,0.0076,0.0076,0.0076,0.0077,0,0.053,0.0575,0.0617,0.0649,0.0727,0.0733,0.081,0.0814,0.0843,0.0899,0.0806,0.0822,0.0629,0.0526,0.0373,0.0203,0.0217,0.0067,0.0032,0.0064,0.0064,0.0071,0.0071,0.0073,0.0074,0.0074,0.0075,0,0.057,0.0592,0.0667,0.0725,0.075,0.0808,0.09,0.096,0.0964,0.1033,0.103,0.0953,0.0817,0.0612,0.0406,0.0261,0.009,0.0023,0.007,0.0043,-0.004,-0.0035,-0.0103,-0.0104,-0.0105,-0.0106,-0.0107,0,0.0597,0.0637,0.0729,0.0786,0.0815,0.0904,0.0976,0.1019,0.1097,0.1122,0.1168,0.1051,0.1004,0.0687,0.0395,0.0116,0.0079,-0.0045,-0.0058,-0.003,-0.0057,-0.0051,-0.0045,-0.0054,-0.0055,-0.0055,-0.0055,0,0.0653,0.068,0.0745,0.0865,0.095,0.1063,0.1165,0.1247,0.1303,0.1361,0.141,0.1367,0.1055,0.0778,0.0377,0.0191,-0.0001,-0.006,-0.0042,-0.0009,0.0009,-0.0015,-0.001,-0.0058,-0.0058,-0.0058,-0.0057,-0.0057,0.0694,0.0752,0.0838,0.0956,0.1062,0.1205,0.1319,0.143,0.1566,0.1651,0.1592,0.1529,0.1188,0.0687,0.0342,-0.0029,-0.0004,-0.0128,-0.0124,-0.0121,-0.0095,-0.008,-0.016,-0.016,-0.016,-0.016,-0.0161,0,0.0751,0.0817,0.0926,0.107,0.12,0.1249,0.1438,0.1557,0.1728,0.1765,0.1797,0.1476,0.1147,0.0743,0.0199,-0.0111,-0.013,-0.0215,-0.0169,-0.0163,-0.0159,-0.0134,-0.0209,-0.0211,-0.0212,-0.0213,0,0,0.078,0.0887,0.0945,0.1159,0.1268,0.1462,0.1583,0.1747,0.1829,0.1892,0.1837,0.1731,0.1249,0.0848,0.0414,0.0097,0.0042,0.0037,0.0113,0.0226,0.0234,-0.0071,-0.002,0,0,0,0,0]}],[{"header":{"parameterUnit":"m.s-1","parameterCategory":2,"la1":30.2991,"la2":30.254,"lo1":-89.0895,"lo2":-89.0444,"dy":0.0017,"dx":0.0017,"nx":28,"ny":28,"refTime":"2025-01-10T03:00:00:Z","depth":"4","parameterNumber":2,"parameterNumberName":"U-component_of_CURRENTS"},"data":[0,0,0,0,0,0,0,0,0,0,0,0,0,0,0,0,0,0,0,0,0,0,0,0,0,0,0,0,0,0,0,0,0,0,0,0,0,0,0,0,0,0,0,0,0,0,0,0,0,0,0,0,0,0,0,0,0,0,0.1858,0.1858,0,0.1886,0.1886,0.1886,0.1922,0.1923,0.1923,0.1924,0.1975,0.1976,0.1976,0,0,0,0,0,0,0,0,0,0,0,0,0,0.182,0.182,0.1858,0.1858,0.1859,0.1886,0.1886,0.1886,0.1922,0.1923,0.1924,0.1924,0.1975,0.1975,0.1976,0,0,0,0,0,0,0,0,0,0,0,0,0,0.1838,0.182,0.1858,0.1882,0.1884,0.1885,0.1886,0.1886,0.1921,0.1923,0.1924,0.1925,0.1974,0.1975,0.1976,0.1958,0,0,0.1979,0.198,0,0,0,0,0,0,0,0,0.1837,0.184,0.1878,0.188,0.1883,0.1903,0.1891,0.1912,0.1921,0.1905,0.1924,0.1925,0.1954,0.1956,0.1956,0.1961,0.1963,0.1979,0.198,0.198,0.198,0,0,0,0,0,0,0,0.1836,0.1839,0.1867,0.1878,0.1881,0.1885,0.1889,0.1895,0.1921,0.1907,0.191,0.1916,0.1955,0.1954,0.1957,0.1964,0.1979,0.198,0.1981,0.1981,0.2079,0.208,0,0,0,0,0,0,0.1837,0.1837,0.1866,0.1868,0.1865,0.1885,0.189,0.1894,0.1921,0.1926,0.1915,0.1917,0.1952,0.1956,0.1959,0.2047,0.198,0.1981,0.1982,0.2077,0.2079,0.2081,0,0,0,0,0,0,0.1836,0.1839,0.1865,0.1855,0.1859,0.1885,0.1889,0.1894,0.1934,0.1927,0.1933,0.1956,0.1953,0.1958,0.2002,0.2045,0.1981,0.1982,0.2074,0.2077,0.208,0.2154,0,0,0,0,0,0,0.1834,0.1838,0.1863,0.1855,0.186,0.1891,0.1889,0.1894,0.1935,0.194,0.1963,0.1967,0.1955,0.2001,0.2003,0.2046,0.1983,0.2072,0.2076,0.2079,0.2149,0.2159,0.2168,0,0,0,0,0,0.1833,0.1852,0.1863,0.1868,0.1885,0.1892,0.1895,0.1916,0.1936,0.1957,0.198,0.1968,0.2027,0.2003,0.2005,0.2049,0.207,0.2074,0.2079,0.2145,0.2157,0.2168,0,0,0,0,0,0,0.185,0.1858,0.187,0.1893,0.1906,0.19,0.1928,0.194,0.1973,0.1994,0.1988,0.1993,0.205,0.204,0.2014,0.209,0.2049,0.2054,0.2099,0.211,0.212,0.2128,0.1984,0,0,0,0,0,0.1864,0.1886,0.1888,0.1914,0.1924,0.1936,0.1951,0.1965,0.1982,0.2,0.2017,0.204,0.2062,0.2081,0.2094,0.2131,0.2129,0.2164,0.2173,0.2181,0.2191,0.2226,0.2239,0.2096,0.2096,0.2096,0,0,0.188,0.1889,0.1904,0.1921,0.1936,0.1953,0.1949,0.1984,0.2013,0.1999,0.2061,0.2076,0.208,0.2125,0.215,0.2128,0.2222,0.2187,0.2194,0.2199,0.2232,0.2246,0.2258,0.2099,0.2099,0.2098,0,0,0.1904,0.1931,0.1952,0.1965,0.1995,0.1999,0.202,0.2039,0.2068,0.2115,0.212,0.2164,0.2195,0.2206,0.2213,0.2285,0.2272,0.2298,0.2353,0.2387,0.2398,0.2409,0.2426,0.2437,0.2302,0.2302,0.2302,0,0.1928,0.1947,0.1962,0.1981,0.2,0.2025,0.2048,0.2076,0.2113,0.2142,0.2152,0.2223,0.2231,0.228,0.2311,0.2306,0.232,0.2306,0.2399,0.2409,0.2418,0.2433,0.2444,0.2306,0.2306,0.2306,0.2305,0,0.1948,0.1981,0.1997,0.2029,0.2053,0.2081,0.211,0.2156,0.2199,0.2222,0.2299,0.2317,0.2359,0.2373,0.2366,0.2441,0.2428,0.2406,0.2366,0.2437,0.2448,0.2458,0.2312,0.2311,0.231,0.2309,0,0,0.1948,0.2,0.2011,0.2033,0.2082,0.2096,0.2161,0.2209,0.2264,0.2317,0.2383,0.2434,0.2461,0.2472,0.2479,0.2512,0.2591,0.25,0.2499,0.2511,0.2667,0.2494,0.2488,0.2592,0.2594,0.2596,0.2648,0,0.1962,0.2001,0.2029,0.208,0.2097,0.2147,0.2201,0.2257,0.2319,0.2391,0.2435,0.2503,0.2493,0.2536,0.2569,0.2593,0.2623,0.2579,0.2602,0.2602,0.2435,0.2496,0.2603,0.2656,0.2658,0.266,0.2661,0,0.1958,0.1987,0.2035,0.2098,0.2115,0.2161,0.2253,0.2308,0.241,0.2464,0.2541,0.2579,0.2658,0.2635,0.271,0.2688,0.2692,0.2695,0.2696,0.2515,0.2448,0.2572,0.268,0.2678,0.2677,0.2676,0.2675,0,0.1919,0.1986,0.2028,0.2049,0.2128,0.2179,0.2238,0.2339,0.2402,0.253,0.2593,0.2674,0.274,0.2766,0.2787,0.2767,0.2849,0.2811,0.2652,0.264,0.2746,0.2735,0.2855,0.2855,0.2855,0.2855,0.2855,0,0.1889,0.1927,0.2024,0.2041,0.2109,0.2177,0.2272,0.2346,0.2468,0.2534,0.264,0.2694,0.2784,0.2832,0.2825,0.2771,0.2881,0.2671,0.2645,0.2776,0.2767,0.2753,0.2741,0.2857,0.2856,0.2856,0.2856,0,0.1827,0.1892,0.1945,0.2049,0.209,0.2145,0.2283,0.2338,0.2478,0.2573,0.2623,0.275,0.2803,0.2855,0.2901,0.2807,0.2779,0.2729,0.2879,0.2859,0.2537,0.2528,0.2549,0.2544,0.2539,0.2535,0.2532,0,0.1791,0.1816,0.194,0.1976,0.2032,0.2129,0.2184,0.233,0.2383,0.2568,0.2587,0.2713,0.2766,0.2693,0.2763,0.2735,0.2695,0.2663,0.2584,0.2535,0.2508,0.2507,0.2504,0.2524,0.2523,0.2522,0.252,0,0.1722,0.1791,0.1835,0.1912,0.198,0.2038,0.2132,0.2159,0.2311,0.2464,0.2484,0.2505,0.2558,0.2572,0.2581,0.2552,0.2673,0.2612,0.2621,0.2546,0.2504,0.2482,0.2486,0.2504,0.2506,0.2508,0.2509,0,0.168,0.1695,0.1767,0.1815,0.1894,0.1905,0.1975,0.2017,0.209,0.2281,0.228,0.2401,0.2528,0.2478,0.248,0.2448,0.2395,0.2296,0.232,0.2339,0.2243,0.2158,0.2035,0,0,0,0,0,0.1619,0.1614,0.1655,0.1685,0.1756,0.1798,0.1909,0.1978,0.2127,0.208,0.2173,0.2202,0.221,0.2275,0.2195,0.2384,0.2409,0.2281,0.2309,0.2413,0.2432,0.2336,0,0,0,0,0,0,0.1573,0.161,0.1609,0.1564,0.156,0.1612,0.1676,0.1779,0.1759,0.1922,0.1937,0.2061,0.2104,0.2227,0.215,0.2169,0.2137,0.2362,0.2356,0.2402,0.2419,0.2434,0.2343,0,0,0,0,0]},{"header":{"parameterUnit":"m.s-1","parameterCategory":2,"la1":30.2991,"la2":30.254,"lo1":-89.0895,"lo2":-89.0444,"dy":0.0017,"dx":0.0017,"nx":28,"ny":28,"refTime":"2025-01-10T03:00:00:Z","depth":"4","parameterNumber":3,"parameterNumberName":"V-component_of_CURRENTS"},"data":[0,0,0,0,0,0,0,0,0,0,0,0,0,0,0,0,0,0,0,0,0,0,0,0,0,0,0,0,0,0,0,0,0,0,0,0,0,0,0,0,0,0,0,0,0,0,0,0,0,0,0,0,0,0,0,0,0,0,0.0272,0.0272,0,0.0254,0.0254,0.0253,0.024,0.024,0.024,0.024,0.0222,0.0222,0.0222,0,0,0,0,0,0,0,0,0,0,0,0,0,0.0269,0.0269,0.0272,0.0272,0.0272,0.0254,0.0254,0.0253,0.024,0.024,0.024,0.024,0.0222,0.0222,0.0221,0,0,0,0,0,0,0,0,0,0,0,0,0,0.0262,0.0269,0.0272,0.0263,0.0262,0.0254,0.0254,0.0253,0.024,0.024,0.024,0.024,0.0223,0.0222,0.0221,0.022,0,0,0.022,0.0219,0,0,0,0,0,0,0,0,0.0263,0.0262,0.0265,0.0264,0.0263,0.0249,0.0246,0.0242,0.024,0.0248,0.024,0.024,0.0232,0.023,0.0227,0.0219,0.0219,0.022,0.0219,0.0219,0.0219,0,0,0,0,0,0,0,0.0263,0.0263,0.0264,0.0264,0.0263,0.0251,0.025,0.0245,0.0241,0.0248,0.0247,0.0245,0.0231,0.0227,0.0226,0.0218,0.022,0.0219,0.0219,0.0218,0.0215,0.0216,0,0,0,0,0,0,0.0268,0.0264,0.0265,0.0264,0.0263,0.0251,0.025,0.0254,0.0241,0.0239,0.0245,0.0245,0.0228,0.0227,0.0226,0.0242,0.0219,0.0218,0.0218,0.0215,0.0215,0.0216,0,0,0,0,0,0,0.0268,0.0268,0.0266,0.0263,0.0262,0.0252,0.0255,0.0253,0.0255,0.0239,0.0237,0.0249,0.0228,0.0226,0.0228,0.0241,0.0218,0.0218,0.0215,0.0215,0.0216,0.0264,0,0,0,0,0,0,0.0268,0.0268,0.0276,0.0264,0.0262,0.027,0.0255,0.0253,0.0254,0.0253,0.0242,0.024,0.0228,0.0229,0.0227,0.024,0.0217,0.0214,0.0215,0.0215,0.0262,0.0266,0.0269,0,0,0,0,0,0.0268,0.028,0.0276,0.0276,0.0272,0.027,0.0269,0.026,0.0254,0.026,0.0251,0.024,0.023,0.0229,0.0227,0.0239,0.0214,0.0215,0.0215,0.026,0.0265,0.0269,0,0,0,0,0,0,0.0282,0.0279,0.0275,0.0285,0.0282,0.0268,0.0273,0.0266,0.0262,0.0262,0.0246,0.0243,0.0247,0.0236,0.0234,0.0238,0.022,0.022,0.0254,0.0259,0.0262,0.0274,0.0217,0,0,0,0,0,0.0288,0.0297,0.0289,0.0298,0.0298,0.0286,0.0285,0.0279,0.0273,0.0271,0.0263,0.0253,0.0247,0.0248,0.0239,0.0245,0.0218,0.025,0.0254,0.0257,0.0265,0.0232,0.0233,0.0218,0.0218,0.0218,0,0,0.0295,0.0296,0.03,0.0302,0.0298,0.0308,0.0286,0.0288,0.03,0.027,0.0283,0.0266,0.0251,0.0256,0.0257,0.025,0.0246,0.0258,0.0261,0.0267,0.0232,0.0234,0.0235,0.0218,0.0218,0.0218,0,0,0.0316,0.0315,0.033,0.0332,0.0331,0.0325,0.0329,0.0321,0.032,0.0326,0.0307,0.0298,0.0293,0.0284,0.0279,0.0297,0.0264,0.0293,0.0326,0.0295,0.0296,0.0296,0.0258,0.0255,0.0298,0.0298,0.0298,0,0.0326,0.0345,0.0334,0.035,0.036,0.0338,0.036,0.0355,0.0349,0.0354,0.0338,0.0322,0.0307,0.0313,0.0318,0.0306,0.0279,0.0313,0.03,0.03,0.03,0.0261,0.0257,0.0301,0.03,0.03,0.03,0,0.0357,0.0375,0.0385,0.0401,0.0409,0.0423,0.0418,0.0422,0.0415,0.0408,0.0408,0.0378,0.0371,0.0361,0.0347,0.0343,0.0321,0.0306,0.029,0.0304,0.0262,0.0257,0.0304,0.0303,0.0302,0.0302,0,0,0.0376,0.0403,0.0408,0.0432,0.0441,0.0454,0.0471,0.0484,0.0503,0.0477,0.0495,0.0468,0.0445,0.0436,0.0409,0.0381,0.035,0.0349,0.0346,0.0315,0.0273,0.0253,0.0245,0.0332,0.0331,0.0331,0.0242,0,0.0407,0.0454,0.0459,0.0508,0.0534,0.0528,0.0553,0.0559,0.0555,0.0562,0.052,0.0522,0.0476,0.0474,0.0437,0.0377,0.034,0.0375,0.0262,0.0259,0.0242,0.024,0.033,0.0238,0.0237,0.0236,0.0236,0,0.0439,0.0471,0.0526,0.0575,0.0586,0.0611,0.0651,0.0672,0.0668,0.0664,0.0643,0.0606,0.0567,0.0522,0.0416,0.044,0.0364,0.0306,0.03,0.0263,0.0229,0.0222,0.0226,0.0227,0.0227,0.0228,0.0229,0,0.0465,0.0519,0.057,0.0586,0.0632,0.066,0.0688,0.0704,0.074,0.073,0.0742,0.0676,0.0653,0.0548,0.0422,0.042,0.0294,0.0275,0.018,0.0176,0.0201,0.0201,0.0194,0.0194,0.0195,0.0195,0.0195,0,0.0498,0.054,0.0589,0.0617,0.0691,0.0706,0.0781,0.0791,0.0821,0.0865,0.0801,0.0803,0.0659,0.0567,0.0442,0.0294,0.0304,0.0185,0.0154,0.0221,0.0225,0.0196,0.0197,0.0192,0.0192,0.0193,0.0194,0,0.0519,0.0547,0.0614,0.0677,0.0706,0.0761,0.0854,0.0905,0.0919,0.0969,0.097,0.0901,0.0774,0.0614,0.0439,0.0331,0.0185,0.0128,0.021,0.0185,0.0083,0.0088,0.0017,0.0016,0.0015,0.0014,0.0013,0,0.0532,0.0567,0.0661,0.0713,0.0748,0.0836,0.0902,0.0953,0.1008,0.1027,0.1049,0.0948,0.0873,0.0613,0.0438,0.0187,0.015,0.0072,0.0077,0.0088,0.0066,0.0072,0.0079,0.0011,0.0011,0.001,0.001,0,0.056,0.0595,0.0653,0.076,0.0841,0.0943,0.1032,0.1078,0.113,0.1141,0.1108,0.0972,0.0827,0.0615,0.0415,0.0238,0.0123,0.0059,0.006,0.0064,0.0079,0.006,0.0067,0.0006,0.0007,0.0007,0.0007,0,0.0583,0.0628,0.0706,0.0803,0.091,0.1011,0.1063,0.1119,0.1171,0.1175,0.116,0.1,0.0909,0.0641,0.0462,0.0278,0.023,0.0172,0.0167,0.0169,0.0235,0.0278,0.0241,0,0,0,0,0,0.0602,0.0653,0.0743,0.0852,0.096,0.1028,0.1133,0.1175,0.1215,0.1198,0.118,0.1038,0.0772,0.0667,0.0477,0.0429,0.0193,0.0201,0.0123,-0.0017,-0.0012,0.0036,0,0,0,0,0,0,0.0612,0.0692,0.0739,0.0875,0.0957,0.1084,0.1156,0.1188,0.1179,0.1181,0.1044,0.0982,0.0725,0.0872,0.0469,0.0416,0.0339,0.0081,0.0077,-0.002,-0.0015,-0.0012,0.004,0,0,0,0,0]}]]